Home   Weather   Surat   Past weeks

Flag for India Past Weather in Surat, Gujarat, India — Yesterday and Last 2 Weeks

Now
95 °F

Passing clouds.


Feels Like: 110 °F
Forecast: 85 / 92 °F
Wind: 14 mph from Southwest

Location: Ahmadabad Airport

Current Time: May 29, 2017 at 7:03:31 pm

Latest Report: May 29, 2017 at 6:30 pm


Visibility: 2 mi

Pressure: 29.45 "Hg

Humidity: 56%

Dew Point: 77 °F

Location of SuratLocation

Past Weather in Surat — Graph

°F

Surat Temperature Yesterday

Maximum temperature yesterday: 104 °F (at 3:30 pm)
Minimum temperature yesterday: 88 °F (at 4:00 am)
Average temperature yesterday: 93 °F

High & Low Weather Summary for the Past Weeks

 TemperatureHumidityPressure
High111 °F (May 19, 2:30 pm)75% (May 27, 3:30 am)29.83 "Hg (May 27, 3:30 am)
Low77 °F (May 21, 11:30 pm)11% (May 17, 5:30 pm)29.45 "Hg (May 29, 4:30 pm)
Average95 °F45%29.66 "Hg
* Reported May 14 5:30 pm — May 29 6:00 pm, Surat. Weather by CustomWeather, © 2017

Note: Actual official high and low records may vary slightly from our data, if they occured in-between our weather recording intervals... More about our weather records

Advertising

Surat Weather History for the Previous 24 Hours

Scroll right to see more
 ConditionsComfort  
Time TempWeatherWind HumidityBarometerVisibility
6:00 pm
Mon, May 29
97 °FScattered clouds.10 mph53%29.45 "Hg3 mi
5:30 pm99 °FScattered clouds.14 mph50%29.45 "Hg4 mi
5:00 pm100 °FScattered clouds.14 mph45%29.45 "Hg4 mi
4:30 pm102 °FScattered clouds.13 mph40%29.45 "Hg4 mi
4:00 pm102 °FScattered clouds.10 mph42%29.47 "Hg4 mi
3:30 pm102 °FScattered clouds.12 mph42%29.47 "Hg4 mi
3:00 pm102 °FScattered clouds.7 mph40%29.50 "Hg4 mi
2:30 pm102 °FScattered clouds.12 mph37%29.50 "Hg4 mi
2:00 pm100 °FScattered clouds.10 mph40%29.53 "Hg4 mi
1:00 pm97 °FScattered clouds.10 mph44%29.56 "Hg3 mi
12:30 pm97 °FScattered clouds.13 mph44%29.59 "Hg3 mi
12:00 pm95 °FScattered clouds.14 mph50%29.59 "Hg4 mi
11:30 am95 °FScattered clouds.10 mph47%29.59 "Hg4 mi
11:00 am93 °FScattered clouds.16 mph53%29.59 "Hg4 mi
10:30 am95 °FScattered clouds.17 mph50%29.59 "Hg4 mi
10:00 am93 °FScattered clouds.12 mph53%29.59 "Hg4 mi
9:30 am91 °FScattered clouds.10 mph56%29.59 "Hg4 mi
9:00 am90 °FScattered clouds.15 mph59%29.62 "Hg3 mi
8:00 am88 °FPartly sunny.12 mph62%29.59 "Hg2 mi
7:30 am88 °FPartly sunny.12 mph62%29.59 "Hg2 mi
7:00 am88 °FScattered clouds.13 mph62%29.59 "Hg2 mi
6:00 am86 °FPassing clouds.13 mph66%29.59 "Hg2 mi
5:30 am88 °FPassing clouds.13 mph62%29.56 "Hg2 mi
5:00 am88 °FClear.10 mph62%29.56 "Hg2 mi
4:00 am88 °FClear.13 mph62%29.56 "Hg2 mi
3:30 am88 °FClear.13 mph62%29.56 "Hg2 mi
3:00 am88 °FClear.7 mph62%29.56 "Hg2 mi
2:30 am90 °FClear.9 mph59%29.56 "Hg2 mi
2:00 am90 °FClear.9 mph63%29.56 "Hg2 mi
1:00 am91 °FHaze.6 mph63%29.59 "Hg2 mi
12:30 am91 °FHaze.5 mph63%29.59 "Hg2 mi
12:00 am91 °FHaze.5 mph67%29.59 "Hg2 mi
11:30 pm
Sun, May 28
90 °FHaze.6 mph71%29.59 "Hg2 mi
11:00 pm90 °FHaze.7 mph71%29.59 "Hg2 mi
10:30 pm90 °FHaze.12 mph71%29.59 "Hg2 mi
10:00 pm90 °FHaze.12 mph71%29.56 "Hg2 mi
9:30 pm90 °FClear.7 mph67%29.56 "Hg2 mi
9:00 pm91 °FClear.10 mph63%29.56 "Hg2 mi
8:30 pm91 °FClear.10 mph63%29.56 "Hg2 mi
8:00 pm93 °FClear.12 mph59%29.56 "Hg2 mi
7:30 pm95 °FClear.10 mph56%29.53 "Hg2 mi
7:00 pm95 °FClear.13 mph56%29.53 "Hg3 mi
Weather by CustomWeather, © 2017

See weather overviewHow to use our weather pages